Regional Weather Roundup
Issued by NWS

Home | Current Version | Previous Version | Graphics & Text | Print | Product List | Glossary On
Versions: 1 2 3 4 5 6 7 8 9 10 11 12 13 14 15 16 17 18 19 20 21 22 23 24 25 26 27 28 29 30 31 32 33 34 35 36 37 38 39 40 41 42 43 44 45 46 47 48 49 50
841
ASUS43 KOAX 230302
RWRNE

WEATHER ROUNDUP FOR NEBRASKA
NATIONAL WEATHER SERVICE OMAHA NE
900 PM CST WED FEB 22 2017

NOTES: SATELLITE DATA IS BEING USED TO AUGMENT CLOUD COVER ABOVE
       12000 FEET.
       "FAIR" INDICATES FEW OR NO CLOUDS BELOW 12,000 FEET WITH NO
       SIGNIFICANT WEATHER AND/OR OBSTRUCTIONS TO VISIBILITY.

  * THESE STATIONS DO NOT REPORT WEATHER SUCH AS RAIN...SNOW OR FOG.

NEZ001>004-019>022-054>056-230400-
NEBRASKA PANHANDLE

CITY           SKY/WX    TMP DP  RH WIND       PRES   REMARKS
SCOTTSBLUFF    CLOUDY    43  24  47 CALM      29.81F
ALLIANCE       CLOUDY    42  29  59 NE23G29   29.81R
CHADRON        CLOUDY    38  30  73 NE16      29.88R WCI  29
KIMBALL        CLOUDY    39  25  56 NW8       29.78F WCI  34
SIDNEY         PTCLDY    42  16  34 NE10      29.78F
$$

NEZ057>060-069>072-079>082-230400-
SOUTHWEST NEBRASKA

CITY           SKY/WX    TMP DP  RH WIND       PRES   REMARKS
NORTH PLATTE   CLEAR     43  23  45 NE9       29.77S
IMPERIAL       CLEAR     39  21  48 NE9       29.75F WCI  33
LEXINGTON      CLEAR     42  25  50 NE9       29.76F
MCCOOK         CLEAR     45  24  43 NE9       29.73F
OGALLALA       CLOUDY    43  22  43 N10       29.77S
$$

NEZ005>010-023>029-035>040-094-230400-
NORTH CENTRAL NEBRASKA

CITY           SKY/WX    TMP DP  RH WIND       PRES   REMARKS
VALENTINE      MOCLDY    38  32  79 N14       29.87R WCI  30
AINSWORTH      CLEAR     39  36  89 N16       29.85S WCI  30
BROKEN BOW     PTCLDY    40  29  64 N6        29.78S
O`NEILL        CLEAR     45  37  73 N14       29.84R
ORD            CLEAR     40  28  62 N3        29.79R
THEDFORD       CLOUDY    44  35  71 N17G26    29.83R
$$

NEZ041-046>049-061>064-073>077-083>087-230400-
SOUTH CENTRAL NEBRASKA

CITY           SKY/WX    TMP DP  RH WIND       PRES   REMARKS
GRAND ISLAND   CLEAR     42  33  70 NE6       29.79R
AURORA         CLEAR     44  31  62 N12       29.77S
HASTINGS       CLEAR     45  30  55 NE7       29.78R
HEBRON         CLEAR     52  32  47 NE8       29.75R
HOLDREGE       CLEAR     44  23  44 NE12      29.76R
KEARNEY *      CLEAR     43  27  52 N14       29.77S
YORK           CLEAR     45  32  61 N13       29.77R
$$

NEZ011>018-030>034-042>045-230400-
NORTHEAST NEBRASKA

CITY           SKY/WX    TMP DP  RH WIND       PRES   REMARKS
NORFOLK        CLEAR     48  35  60 N13       29.78R
ALBION         CLEAR     48  32  53 N7        29.79R
BLAIR          CLEAR     53  40  60 N13G20    29.77R
FREMONT        CLEAR     50  35  56 N3        29.78R
TEKAMAH        CLEAR     47  39  74 N3        29.78R
WAYNE          CLEAR     42  37  83 N7        29.79R
$$

NEZ050>053-065>068-078-088>093-230400-
SOUTHEAST NEBRASKA

CITY           SKY/WX    TMP DP  RH WIND       PRES   REMARKS
LINCOLN        CLEAR     47  33  58 N10       29.77R
OMAHA EPPLEY   CLEAR     48  35  60 N9        29.76R
BEATRICE       CLEAR     54  35  49 NE10      29.74R
FALLS CITY     PTCLDY    57  40  52 N9        29.72R
NEBRASKA CITY  CLEAR     55  28  36 N10       29.74R
PLATTSMOUTH    CLEAR     53  31  43 N5        29.75R
$$

NEZ044-045-051>053-067-230400-
OMAHA AREA

CITY           SKY/WX    TMP DP  RH WIND       PRES   REMARKS
OMAHA EPPLEY   CLEAR     48  35  60 N9        29.76R
BLAIR          CLEAR     53  40  60 N13G20    29.77R
FREMONT        CLEAR     50  35  56 N3        29.78R
MILLARD        CLEAR     57  37  47 N6        29.76S
OFFUTT AFB     CLEAR     56  37  47 N15G24    29.75R
PLATTSMOUTH    CLEAR     53  31  43 N5        29.75R
WAHOO          FAIR      46  34  63 N8        29.77R
$$




USA.gov is the U.S. government's official web portal to all federal, state and local government web resources and services.